sat.trackr.live / text

‹ back to catalog

SHIYAN-21 (SY-21)

NORAD 54752 · 2022-172A

PAYLOAD ACTIVE UNKNOWN

§ Identity

Operator
Country
PRC
Launch date
2022-12-16
Launch site
XICLF
Launch vehicle
Mass (kg)
RCS (m²)

External: N2YO · Heavens-Above · Gunter

§ Orbital elements

Epoch: 2026-09-20T22:26:54.322944Z

Period
94.25 min
Inclination
35.9894°
Eccentricity
0.0025493
Mean motion
15.27770777 rev/d
Perigee alt
465.0 km
Apogee alt
500.0 km
Semi-major
6,860.6 km
B*
1.9004e-4
RAAN
192.9561°
Arg perigee
0.2795°
Mean anomaly
359.7949°
Rev number
21,033

§ Raw data

SHIYAN-21 (SY-21)1 54752U 22172A   26263.93535096  .00005262  00000+0  19004-3 0  99972 54752  35.9894 192.9561 0025493   0.2795 359.7949 15.27770777210337

JSON: /api/v1/satellites/54752 · /tle

For live sub-satellite position, see the globe view (requires WebGL).

§ Visibility from observer

Set your observer location to see the next 7 days of passes ≥ 10°. The values pass through the URL so the page stays shareable.

No JS? Fill the form by hand. The geolocation button needs JavaScript.